Retour au catalogue

FENGYUN 1C DEB

ActifSSO
NORAD 31655·DEBRIS·🇨🇳 China

Lancé May 10, 1999 depuis Taiyuan Satellite Launch Center

Loading…

Prochains Passages (prochaines 24 heures)

TLE

VieillissantSource: Space-Track

Époque: Sep 9, 2026, 01:09 UTC

1 31655U 99025CBM 26252.04818668  .00002225  00000-0  21012-2 0  9992
2 31655  99.2752 191.5118 0283526 158.5609 264.4393 13.65711250634074

Suivez FENGYUN 1C DEB en temps réel avec AllMySat

Download on the App Store